Houston, TX

8:28 PM CDT on July 23, 2017 (GMT -0500)
Hobby

Weather History for KHOU - December, 2014

Change the Weather History Date:

Saturday, December 6, 2014

  Actual Average Record
Temperature  
Mean Temperature 65 °F 56 °F  
Max Temperature 71 °F 66 °F 82 °F (1951)
Min Temperature 58 °F 46 °F 20 °F (1950)
Degree Days  
Heating Degree Days 0 10  
Month to date heating degree days 31 57  
Since 1 July heating degree days 279 242  
Cooling Degree Days 2    
Growing Degree Days 16 (Base 50)    
Moisture  
Dew Point 64 °F    
Average Humidity 89    
Maximum Humidity 97    
Minimum Humidity 80    
Precipitation  
Precipitation T in 0.13 in 3.08 in (1915)
Month to date precipitation 0.10 0.81  
Year to date precipitation 38.22 46.84  
Sea Level Pressure  
Sea Level Pressure 30.25 in    
Wind  
Wind Speed 5 mph (North)    
Max Wind Speed 16 mph    
Max Gust Speed 20 mph    
Visibility 9 miles    
Events      
T = Trace of Precipitation, MM = Missing Value Source: NWS Daily Summary

Daily Weather History Graph

Daily Weather History Graph

Search for Another Location

Airport or City:

Trip Planner

Search our weather history database for the weather conditions in past years. The results will help you decide how hot, cold, wet, or windy it might be!

Date:

Astronomy

Dec. 06, 2014 Rise Set
Actual Time 7:02 AM CST 5:21 PM CST
Civil Twilight 6:36 AM CST 5:47 PM CST
Nautical Twilight 6:06 AM CST 6:17 PM CST
Astronomical Twilight 5:37 AM CST 6:46 PM CST
Moon 5:55 PM CST (12/6) 6:58 AM CST (12/6)
Length of Visible Light 11h 11m
Length of Day
10h 19m
Full, 100% of the Moon is Illuminated
Dec 6
Full
Dec 14
Last Quarter
Dec 21
New
Dec 28
First Quarter
Jan 4
Full

Hourly Weather History & Observations

Time (CST) Temp. Dew Point Humidity Pressure Visibility Wind Dir Wind Speed Gust Speed Precip Events Conditions
12:53 AM 70.0 °F 69.1 °F 97% 30.19 in 10.0 mi Calm Calm - N/A   Overcast
1:13 AM 69.8 °F 69.8 °F 100% 30.18 in 10.0 mi Calm Calm - N/A   Overcast
1:44 AM 69.8 °F 69.8 °F 100% 30.18 in 10.0 mi SW 4.6 mph - N/A   Overcast
1:53 AM 70.0 °F 69.1 °F 97% 30.20 in 10.0 mi SSW 4.6 mph - N/A   Overcast
2:32 AM 69.8 °F 69.8 °F 100% 30.18 in 10.0 mi South 3.5 mph - N/A   Overcast
2:53 AM 70.0 °F 69.1 °F 97% 30.20 in 10.0 mi South 3.5 mph - N/A   Overcast
3:53 AM 69.1 °F 69.1 °F 100% 30.20 in 8.0 mi Calm Calm - N/A   Overcast
4:53 AM 69.1 °F 69.1 °F 100% 30.20 in 9.0 mi South 3.5 mph - N/A   Overcast
5:19 AM 69.8 °F 69.8 °F 100% 30.19 in 8.0 mi Calm Calm - N/A   Overcast
5:43 AM 69.8 °F 69.8 °F 100% 30.19 in 7.0 mi Calm Calm - N/A   Overcast
5:53 AM 69.1 °F 69.1 °F 100% 30.21 in 7.0 mi Calm Calm - N/A   Overcast
6:24 AM 69.8 °F 69.8 °F 100% 30.20 in 7.0 mi Calm Calm - N/A   Overcast
6:53 AM 69.1 °F 69.1 °F 100% 30.23 in 9.0 mi West 3.5 mph - N/A   Overcast
7:34 AM 69.8 °F 69.8 °F 100% 30.22 in 10.0 mi WNW 4.6 mph - N/A   Scattered Clouds
7:53 AM 69.1 °F 68.0 °F 96% 30.25 in 10.0 mi North 3.5 mph - N/A   Scattered Clouds
8:51 AM 71.6 °F 68.0 °F 88% 30.25 in 10.0 mi North 8.1 mph - N/A   Mostly Cloudy
8:53 AM 72.0 °F 68.0 °F 87% 30.27 in 10.0 mi North 8.1 mph - N/A   Mostly Cloudy
9:22 AM 71.6 °F 66.2 °F 83% 30.26 in 8.0 mi NNW 8.1 mph - N/A   Mostly Cloudy
9:53 AM 70.0 °F 66.0 °F 87% 30.30 in 8.0 mi NNW 10.4 mph - N/A   Overcast
10:53 AM 68.0 °F 64.0 °F 87% 30.30 in 7.0 mi NNW 10.4 mph - N/A   Overcast
11:53 AM 66.9 °F 63.0 °F 87% 30.29 in 7.0 mi North 10.4 mph - N/A   Overcast
12:53 PM 66.0 °F 62.1 °F 87% 30.27 in 7.0 mi NNW 12.7 mph - N/A   Overcast
1:53 PM 64.9 °F 60.1 °F 84% 30.26 in 8.0 mi NNE 9.2 mph - N/A   Overcast
2:53 PM 64.9 °F 60.1 °F 84% 30.26 in 8.0 mi North 12.7 mph - N/A   Overcast
3:53 PM 64.0 °F 60.1 °F 87% 30.27 in 8.0 mi North 13.8 mph - N/A   Overcast
4:53 PM 62.6 °F 59.0 °F 88% 30.26 in 8.0 mi North 15.0 mph - N/A   Overcast
5:53 PM 62.1 °F 57.9 °F 86% 30.29 in 8.0 mi North 12.7 mph - N/A   Overcast
6:53 PM 62.1 °F 57.9 °F 86% 30.31 in 10.0 mi North 12.7 mph - N/A   Overcast
7:23 PM 62.6 °F 57.2 °F 82% 30.30 in 10.0 mi NNE 11.5 mph - N/A   Overcast
7:53 PM 62.1 °F 57.0 °F 84% 30.32 in 10.0 mi North 10.4 mph - N/A   Overcast
8:53 PM 62.1 °F 55.9 °F 80% 30.32 in 10.0 mi North 12.7 mph - N/A   Overcast
9:53 PM 62.1 °F 55.9 °F 80% 30.33 in 10.0 mi NNE 9.2 mph - N/A   Overcast
10:53 PM 61.0 °F 55.9 °F 83% 30.32 in 10.0 mi NNE 11.5 mph - N/A   Overcast
11:53 PM 61.0 °F 55.0 °F 81% 30.32 in 10.0 mi NE 9.2 mph - N/A   Overcast